METAR AND TAF INFORMATION
METAR FOR LEBZ
ADDS - METARS form results

(1101 UTC 23 May 2019)
Data provider http://aviationweather.gov/metar/data/
 
Forecast for: LEBZ (TALAVERA AB/BADA, ES)
Text: TAF LEBZ 230500Z 2306/2406 26007KT CAVOK TX31/2316Z TN14/2306Z
Forecast period: 0600 UTC 23 May 2019 to 0600 UTC 24 May 2019
Forecast type: FROM: standard forecast or significant change
Winds: from the W (260 degrees) at 8 MPH (7 knots; 3.6 m/s)
Visibility: 6 or more miles 10+ km)
Ceiling: unknown
Clouds: missing
Weather: no significant weather forecast for this period

AIRPORT MAP

RUNWAY INFORMATION
Runway 13 Runway length 9350 ft Runway width 197 ft
Runway elevation 579 ft Runway displaced threshold 0 ft Runway heading 126
Runway 31 Runway length 9350 ft Runway width 197 ft
Runway elevation 609 ft Runway displaced threshold 0 ft Runway heading 306

AIRPORT FREQUENCIES
Type APP Name APP Frequency 139.3 MHZ
Type TWR Name BADAJOZ TW Frequency 122.1 MHZ

AIRPORT NEAR NAVIGATION AIDS
Type NDB Name Badajoz Frequency 298 KHZ
Type TACAN Name Talavera Frequency 108800 KHZ
Type VOR-DME Name Badajoz Frequency 116800 KHZ